Preview of NWS' New Version of Forecast
This preview is not operational and should not be used for support decisions.

Regional Weather Roundup (RWR)

Issued by National Weather Service (NWS)

                            
000
ASUS44 KMEG 181300
RWRTN 
TENNESSEE HOURLY STATE WEATHER ROUNDUP
NATIONAL WEATHER SERVICE MEMPHIS TN
800 AM CDT TUE JUN 18 2019

TNZ002-004-019-021-049-052-054-088>092-181400-
WEST TENNESSEE
  
CITY           SKY/WX    TMP DP  RH WIND       PRES   REMARKS
MEMPHIS INTL   CLOUDY    72  72 100 S5        29.93S FOG              
NWS MEMPHIS      N/A     71 N/A N/A MISG        N/A                   
JACKSON        CLOUDY    71  71 100 CALM      29.95F FOG              
DYERSBURG      PTSUNNY   74  71  91 S6        29.93F                  
$$

TNZ008-025-027-028-033-062-065-066-181400-
NORTH MIDDLE TENNESSEE
  
CITY           SKY/WX    TMP DP  RH WIND       PRES   REMARKS
NASHVILLE      CLOUDY    73  68  84 N3        29.99R                  
CLARKSVILLE    LGT RAIN  71  69  93 S5        29.96S                  
SMYRNA         CLOUDY    71  70  96 E6        29.99S                  
CROSSVILLE     LGT RAIN  69  66  90 CALM      30.05S                  
$$

TNZ061-075-076-078-094-096-097-181400-
SOUTH MIDDLE TENNESSEE
  
CITY           SKY/WX    TMP DP  RH WIND       PRES   REMARKS
$$

TNZ017-018-042-046-047-181400-
NORTHEAST TENNESSEE
  
CITY           SKY/WX    TMP DP  RH WIND       PRES   REMARKS
TRI CITIES     CLOUDY    69  65  86 CALM      30.06S                  
$$

TNZ012-013-036-069-073-074-181400-
CENTRAL EAST TENNESSEE
  
CITY           SKY/WX    TMP DP  RH WIND       PRES   REMARKS
KNOXVILLE      CLOUDY    71  69  93 E6        30.00F                  
OAK RIDGE      CLOUDY    73  68  84 CALM      30.02F                  
$$

TNZ083-085-099-181400-
SOUTHEAST TENNESSEE
  
CITY           SKY/WX    TMP DP  RH WIND       PRES   REMARKS
CHATTANOOGA    CLOUDY    73  70  90 S7        30.01S                  
$$

SKY/WX REPORTED AS FAIR MEANS FEW OR NO CLOUDS BELOW
12 THOUSAND FEET.